Regional Weather Roundup
Issued by NWS

Home | Current Version | Previous Version | Graphics & Text | Print | Product List | Glossary On
Versions: 1 2 3 4 5 6 7 8 9 10 11 12 13 14 15 16 17 18 19 20 21 22 23 24 25 26 27 28 29 30 31 32 33 34 35 36 37 38 39 40 41 42 43 44 45 46 47 48 49 50
000
ASUS43 KLOT 280908
RWRIL

ILLINOIS REGIONAL WEATHER ROUNDUP
NATIONAL WEATHER SERVICE CHICAGO/ROMEOVILLE IL
400 AM CDT THU JUL 28 2016

NOTE: "FAIR" INDICATES FEW OR NO CLOUDS BELOW 12,000 FEET WITH NO
SIGNIFICANT WEATHER AND/OR OBSTRUCTIONS TO VISIBILITY.

* THESE STATIONS ARE NOT UNDER NWS QUALITY CONTROL. THEY ALSO MAY NOT
  REPORT WEATHER SUCH AS PRECIPITATION OR FOG.

ILZ001-002-007-009-015-016-024-281000-
NORTHWEST ILLINOIS

CITY           SKY/WX    TMP DP  RH WIND       PRES   REMARKS
MOLINE         PTCLDY    71  67  87 CALM      29.88F
STERLING*      PTCLDY    68  66  94 CALM      29.90S FOG
SAVANNA*       PTCLDY    69  68  98 CALM      29.89S
$$

ILZ003-004-008-010-011-017-018-281000-
NORTH CENTRAL ILLINOIS

CITY           SKY/WX    TMP DP  RH WIND       PRES   REMARKS
ROCKFORD       CLOUDY    70  66  87 CALM      29.91S
FREEPORT*      FOG       66  65  98 CALM      29.92S VSB 1
ROCHELLE*      PTCLDY    68  67  96 CALM      29.91R
DE KALB*       MOCLDY    68  67  94 S3        29.92R
$$

ILZ005-006-012>014-019>023-281000-
NORTHEAST ILLINOIS

CITY           SKY/WX    TMP DP  RH WIND       PRES   REMARKS
CHICAGO-OHARE  PTCLDY    72  65  78 CALM      29.89F
CHICAGO-MIDWAY PTCLDY    76  66  71 CALM      29.89F
AURORA         MOCLDY    69  67  93 CALM      29.90F
LANSING*       CLEAR     69  66  91 CALM      29.91S
JOLIET*        PTCLDY    70  69  96 CALM      29.90S
WAUKEGAN       CLEAR     69  66  90 CALM      29.90S
DUPAGE AIRPORT PTCLDY    69  66  90 CALM      29.90S
KANKAKEE*        N/A    N/A N/A N/A CALM      29.90F
WHEELING       CLEAR     70  67  90 CALM      29.91S
MORRIS*        CLOUDY    69  68  96 CALM      29.89S FOG
ROMEOVILLE*    CLEAR     68  65  89 SE5       29.90S
NORTHERLY ISL    N/A     75  65  70 S2          N/A
$$

LMZ740>746-281000-
SOUTHERN LAKE MICHIGAN

STATION/POSITION SKY/WX   TEMP    WIND        PRES    VSBY  WAVE
                          AIR SEA DIR/SP/G                  HT/PER
                          (F)     (DEG/KT/KT) (MB)    (MI)  (FT/S)
SOUTHERN BUOY              74 75  320/  8/ 10 1012.4R         0
WILMETTE HARBOR            74 70   50/  2/  6   N/A           1
HARRISON CRIB              78     200/  5/  5   N/A
BURNHAM HARBOR             75     200/  3/  4   N/A
CALUMET HARBOR             75     220/  1/  2 1012.1F
BURNS HARBOR               72     180/  1/  4 1013.2F
MICHIGAN CITY              74     140/  5/  6   N/A
MICHIGAN CITY 6N           76 77  180/  2/  4   N/A           0
ST. JOSEPH                 76 78  160/  6/  8 1012.1F         1
$$

ILZ025>027-034>036-040-047-049-050-058-095>099-281000-
WEST-CENTRAL ILLINOIS

CITY           SKY/WX    TMP DP  RH WIND       PRES   REMARKS
QUINCY         MOCLDY    70  69  97 NW7       29.88F
GALESBURG*     CLOUDY    71  70  97 CALM      29.90F FOG
MACOMB*        CLOUDY    71  70  96 N3        29.90F
JACKSONVILLE*  CLOUDY    69  67  94 NW6       29.87F
PITTSFIELD*    LGT RAIN  72  69  88 W6        29.88F
$$

ILZ028>032-037-038-041>044-048-051>054-059>061-281000-
CENTRAL ILLINOIS

CITY           SKY/WX    TMP DP  RH WIND       PRES   REMARKS
BLOOMINGTON    PTCLDY    72  68  87 CALM      29.90F
DECATUR        MOCLDY    72  69  90 E3        29.88F
PEORIA         CLOUDY    74  72  93 CALM      29.88F
LACON*         CLOUDY    71  69  94 CALM      29.88S
LINCOLN*       MOCLDY    74  73  96 CALM      29.88F
SPRINGFIELD    CLOUDY    74  73  97 S3        29.87F FOG
TAYLORVILLE    PTCLDY    72  71  99 MISG      29.88F FOG
$$

ILZ033-039-045-046-055>057-062-063-281000-
EAST-CENTRAL ILLINOIS

CITY           SKY/WX    TMP DP  RH WIND       PRES   REMARKS
CHAMPAIGN      CLOUDY    72  68  87 SE3       29.90S
MATTOON        MOCLDY    73  70  90 CALM      29.88F
PARIS*         MOCLDY    70  70 100 CALM      29.90S
$$

ILZ079-100>102-281000-
SOUTHWEST ILLINOIS

CITY           SKY/WX    TMP DP  RH WIND       PRES   REMARKS
ALTON          PTCLDY    71  69  95 CALM      29.88S
BELLEVILLE     MOCLDY    74  74  99 CALM      29.86F
CAHOKIA*       PTCLDY    71  69  93 CALM      29.87S
SPARTA*        PTCLDY    73  71  92 CALM      29.89S
$$

ILZ064>066-069>071-074>076-080>082-084>086-088>090-092>094-281000-
SOUTH-CENTRAL ILLINOIS

CITY           SKY/WX    TMP DP  RH WIND       PRES   REMARKS
CARBONDALE     CLOUDY    73  71  93 S5        29.88F
CAIRO*         CLOUDY    73  73  98 CALM      29.90S
EFFINGHAM*     MOCLDY    73  73 100 SE3       29.89F FOG
MARION         MOCLDY    73  73 100 SE3       29.90S FOG
MT. VERNON     CLOUDY    73  68  83 MISG      29.87F
CENTRALIA*     CLOUDY    73  73 100 CALM      29.88S
SALEM*         PTCLDY    73  72  94 CALM      29.88S
METROPOLIS*    CLOUDY    74  73  99 CALM      29.91S
$$

ILZ067-068-072-073-078-083-087-091-281000-
SOUTHEAST ILLINOIS

CITY           SKY/WX    TMP DP  RH WIND       PRES   REMARKS
LAWRENCEVILLE  CLOUDY    75  75 100 S6        29.89F FOG
FLORA*         MOCLDY    74  73  97 S5        29.89S FOG
FAIRFIELD*     CLOUDY    74  73  99 SE3       29.88S
HARRISBURG*    CLOUDY    73  73  99 S3        29.90F
ROBINSON*      CLOUDY    73  72  98 S5        29.89S
CARMI*         CLOUDY    73  73 100 CALM      29.89F
$$

ABBREVIATIONS USED IN REMARKS
   TC - TEMPERATURE IN CELSIUS
  WCI - WIND CHILL INDEX
   HX - HEAT INDEX
  VSB - VISIBILITY
$$




USA.gov is the U.S. government's official web portal to all federal, state and local government web resources and services.